User: anonymous   Login
Location: Saint André
(43.5594°N, 1.3519°W)
Time: 23:34:28
(UTC+00:00)
Language:

ACS3 Solar Sail - Orbit

View from above orbital plane
View from above orbital plane
View from above satellite
View from above satellite

Ground track
Ground track

The orbit is defined by the following mean orbital elements,

1 59588U          26071.59399837 +.00000000 +00000-0 +19768-1 0 00009
2 59588  97.2052  12.0527 0062157  69.5403 291.2419 13.89752308    01
Epoch (UTC): 12 March 2026 14:15:21
Eccentricity: 0.0062157
inclination: 97.2052°
perigee height: 884 km
apogee height: 975 km
right ascension of ascending node: 12.0527°
argument of perigee: 69.5403°
revolutions per day: 13.89752308
mean anomaly at epoch: 291.2419°

The dashed part of the orbit path shows where the satellite is in the earth's shadow,  

DLR